Flag for Netherlands Weather past 2 weeks in Emmen, Netherlands

Now
45 °F

Cool.


Feels Like: 40 °F
Forecast: 39 / 48 °F
Wind: 9 mph from Southwest

Location: Meppen

Current Time: Dec 20, 2014 at 7:23:38 AM

Latest Report: Dec 20, 2014 at 6:00 AM


Visibility: 6 mi

Pressure: 29.97 "Hg

Humidity: 74%

Dew point: 37 °F

Location of EmmenLocation

Historic Weather in Emmen — Graph

°F

Emmen temperature yesterday

Maximum temperature yesterday: 53 °F (at 12:00 AM)
Minimum temperature yesterday: 43 °F (at 11:00 PM)
Average temperature yesterday: 49 °F

Past Weeks' High & Low Weather Summary

 TemperatureHumidityPressure
High54 °F (Dec 18, 6:00 PM)96% (Dec 6, 11:00 AM)30.34 "Hg (Dec 6, 11:00 AM)
Low34 °F (Dec 5, 7:00 AM)67% (Dec 11, 5:00 PM)29.23 "Hg (Dec 12, 12:00 PM)
Average41 °F87%29.87 "Hg
* Reported Dec 5 6:00 AM — Dec 20 6:00 AM, Emmen, Weather by CustomWeather, © 2014

Note: Actual official high and low records may vary slightly from our data, if they occured in-between our weather recording intervals... More about our weather records

Advertising

Emmen weather history for previous 24 hours

 ConditionsComfort  
Time TempWeatherWind HumidityBarometerVisibility
6:00 AM
Dec 20
45 °FCool.9 mph74%29.97 "Hg6 mi
5:00 AM45 °FQuite cool.8 mph74%29.98 "Hg7 mi
3:00 AM45 °FCool.8 mph72%29.98 "Hg7 mi
2:00 AM45 °FQuite cool.8 mph73%29.97 "Hg7 mi
12:00 AM44 °FQuite cool.7 mph75%29.96 "Hg7 mi
11:00 PM
Dec 19
43 °FQuite cool.8 mph76%29.94 "Hg7 mi
9:00 PM44 °FQuite cool.7 mph75%29.93 "Hg7 mi
8:00 PM44 °FQuite cool.7 mph75%29.91 "Hg7 mi
7:00 PMN/APassing clouds.8 mphN/AN/A12 mi
6:00 PM45 °FQuite cool.6 mph76%29.86 "Hg7 mi
5:00 PM45 °FCool.7 mph74%29.84 "Hg7 mi
3:00 PM47 °FCool.6 mph70%29.80 "Hg7 mi
2:00 PM48 °FCool.6 mph67%29.77 "Hg8 mi
12:00 PM47 °FOvercast.6 mph84%29.75 "Hg19 mi
11:00 AM48 °FLight rain. Overcast.3 mph92%29.72 "Hg9 mi
9:00 AM52 °FRain. Low clouds.8 mph93%29.66 "Hg3 mi
8:00 AM52 °FRain. Low clouds.8 mph93%29.66 "Hg3 mi
Weather by CustomWeather, © 2014

See weather overviewHow to use our weather pages